Location: Sungai Bunut
(2.6333°N, 113.7333°E)
Time: 21:57:39
(UTC+00:00)

SR - Visible Passes

Search period start: 06 December 2023 00:00
Search period end: 16 December 2023 00:00
Orbit: 571 x 872 km, 66.7° (Epoch: 06 December)

Date Brightness Start Highest point End Pass type
(mag) Time Alt. Az. Time Alt. Az. Time Alt. Az.
13 Dec?12:20:05SSE12:20:05SSE12:07:29NNWvisible
14 Dec ? 11:17:25 10° N 11:21:46 28° ENE 11:25:50 10° SE visible
14 Dec ? 13:00:26 10° WNW 13:03:20 16° WSW 13:06:08 10° SW visible
15 Dec ? 12:07:10 10° NW 12:12:00 44° WSW 12:16:27 10° S visible
